Regional Weather Roundup
Issued by NWS

Home | Current Version | Previous Version | Graphics & Text | Print | Product List | Glossary On
Versions: 1 2 3 4 5 6 7 8 9 10 11 12 13 14 15 16 17 18 19 20 21 22 23 24 25 26 27 28 29 30 31 32 33 34 35 36 37 38 39 40 41 42 43 44 45 46 47 48 49 50
000
ASUS44 KMEG 171910
RWRTN
TENNESSEE HOURLY STATE WEATHER ROUNDUP
NATIONAL WEATHER SERVICE MEMPHIS TN
200 PM CDT FRI APR 17 2015

TNZ002-004-019-021-049-052-054-088>092-172000-
WEST TENNESSEE

CITY           SKY/WX    TMP DP  RH WIND       PRES   REMARKS
MEMPHIS INTL   CLOUDY    72  63  73 CALM      30.04F
NWS MEMPHIS      N/A     69 N/A N/A MISG        N/A
JACKSON        CLOUDY    66  61  84 CALM      30.05F
DYERSBURG      CLOUDY    68  52  56 CALM      30.06F
UNION CITY     CLOUDY    70  32  24 N5        30.05F
PARIS          PTSUNNY   68  59  73 CALM      30.06F
LEXINGTON      CLOUDY    64  59  82 CALM      30.05F
SAVANNAH       CLOUDY    68  32  26 E3        30.05F
$$

TNZ008-025-027-028-033-062-065-066-172000-
NORTH MIDDLE TENNESSEE

CITY           SKY/WX    TMP DP  RH WIND       PRES   REMARKS
NASHVILLE      CLOUDY    68  59  73 CALM      30.07F
CLARKSVILLE    CLOUDY    69  60  73 E5        30.07F
SMYRNA         CLOUDY    69  61  76 CALM      30.07F
COOKEVILLE     MOSUNNY   73  61  64 N3        30.06S
CROSSVILLE     CLOUDY    70  56  61 SE5       30.09F
$$

TNZ061-075-076-078-094-096-097-172000-
SOUTH MIDDLE TENNESSEE

CITY           SKY/WX    TMP DP  RH WIND       PRES   REMARKS
FAYETTEVILLE   CLOUDY    64  59  82 CALM      30.08F
TULLAHOMA      CLOUDY    70  61  73 CALM      30.09R
WINCHESTER     PTSUNNY   66  61  82 S8        30.09S
MCMINNVILLE    SUNNY     72  63  73 NW5       30.07F
COLUMBIA       CLOUDY    66  32  28 NE6       30.06S
SHELBYVILLE    MOSUNNY   70  63  78 CALM      30.08S
$$

TNZ017-018-042-046-047-172000-
NORTHEAST TENNESSEE

CITY           SKY/WX    TMP DP  RH WIND       PRES   REMARKS
TRI CITIES     PTSUNNY   73  56  54 W6        30.08F
ELIZABETHTON   CLEAR     72  57  60 VRB6      30.08F
$$

TNZ012-013-036-069-073-074-172000-
CENTRAL EAST TENNESSEE

CITY           SKY/WX    TMP DP  RH WIND       PRES   REMARKS
KNOXVILLE      CLOUDY    69  58  67 CALM      30.07F
OAK RIDGE      CLOUDY    71  58  63 S3        30.08F
GATLINBURG     PTCLDY    68  57  68 CALM      30.06F
MORRISTOWN     CLEAR     72  59  64 CALM      30.09F
$$

TNZ083-085-099-172000-
SOUTHEAST TENNESSEE

CITY           SKY/WX    TMP DP  RH WIND       PRES   REMARKS
CHATTANOOGA    LGT RAIN  62  58  86 CALM      30.10F FOG
$$

SKY/WX REPORTED AS FAIR MEANS FEW OR NO CLOUDS BELOW
12 THOUSAND FEET.



USA.gov is the U.S. government's official web portal to all federal, state and local government web resources and services.